Location: Adaghas
(31.2259°N, 9.0496°W)
Time: 03:42:38
(UTC+00:00)

USA 186 - Pass Details

Date: 18 September 2020
Orbit: 261 x 425 km, 96.9° (Epoch: 12 October)

Event Time Altitude Azimuth Distance (km) Brightness Sun altitude
Exits shadow 20:20:54 20° 355° (N) 984 3.8 -22.6°
Drops below altitude 10° 20:22:01 10° 353° (N) 1,457 4.7 -22.8°
Sets 20:24:04 0° 352° (N) 2,344 5.9 -23.3°
